When you browse on this site, cookies collect data to enhance your experience and personalize the content and advertising you see.
Visit our Privacy Policy to learn more. By continuing to use the site, you agree to this use of cookies and data.
  • Em Portugal
  • Lista de países
  • Para 7 dias
  • Temperatura da água
  • Mapas de satélite
  • Mapa do tempo
  • Widgets de tempo
  • user-avatar
    Iniciar Sessão

    Previsão horária em Kaszuba

    Hoje, 19 Fevereiro, Terça-feira

    Tempo Temperatura Precipitação Vento Pressão Humidade
    00:00 +3°C° 0 mm 2 m/s 749 mmHg 86%
    01:00 +3°C° 0 mm 2 m/s 748 mmHg 88%
    02:00 +3°C° 0 mm 2 m/s 748 mmHg 88%
    03:00 +3°C° 0 mm 2 m/s 747 mmHg 87%
    04:00 +3°C° 0 mm 2 m/s 746 mmHg 87%
    05:00 +2°C° 0 mm 3 m/s 746 mmHg 87%
    06:00 +1°C° 0 mm 3 m/s 746 mmHg 86%
    07:00 +1°C° 0 mm 3 m/s 746 mmHg 86%
    08:00 +1°C° 0 mm 4 m/s 745 mmHg 83%
    09:00 +4°C° 0 mm 4 m/s 745 mmHg 80%
    10:00 +5°C° 0 mm 4 m/s 745 mmHg 77%
    11:00 +6°C° 0 mm 5 m/s 745 mmHg 75%
    12:00 +7°C° 0 mm 5 m/s 745 mmHg 72%
    13:00 +8°C° 0 mm 5 m/s 745 mmHg 70%
    14:00 +7°C° 0.3 mm 5 m/s 745 mmHg 74%
    15:00 +6°C° 0.3 mm 5 m/s 745 mmHg 78%
    16:00 +6°C° 0.3 mm 5 m/s 745 mmHg 82%
    17:00 +5°C° 0.1 mm 4 m/s 745 mmHg 81%
    18:00 +5°C° 0.1 mm 4 m/s 745 mmHg 81%
    19:00 +5°C° 0.1 mm 4 m/s 745 mmHg 80%
    20:00 +5°C° 0.1 mm 5 m/s 745 mmHg 81%
    21:00 +5°C° 0.1 mm 5 m/s 745 mmHg 81%
    22:00 +5°C° 0.1 mm 5 m/s 745 mmHg 82%
    23:00 +3°C° 0.1 mm 5 m/s 745 mmHg 81%

    Amanhã, 20 Fevereiro, Quarta-feira

    Tempo Temperatura Precipitação Vento Pressão Humidade
    00:00 +3°C° 0.1 mm 6 m/s 745 mmHg 80%
    01:00 +3°C° 0.1 mm 6 m/s 745 mmHg 79%
    02:00 +3°C° 0.1 mm 6 m/s 745 mmHg 80%
    03:00 +3°C° 0.1 mm 6 m/s 745 mmHg 80%
    04:00 +2°C° 0.1 mm 6 m/s 746 mmHg 80%
    05:00 +2°C° 0.1 mm 7 m/s 746 mmHg 80%
    06:00 +2°C° 0.1 mm 7 m/s 746 mmHg 80%
    07:00 +2°C° 0.1 mm 7 m/s 746 mmHg 79%
    08:00 +2°C° 0.1 mm 7 m/s 747 mmHg 78%
    09:00 +2°C° 0.1 mm 6 m/s 747 mmHg 78%
    10:00 +2°C° 0.1 mm 6 m/s 748 mmHg 77%
    11:00 +2°C° 0 mm 6 m/s 748 mmHg 76%
    12:00 +3°C° 0 mm 6 m/s 749 mmHg 76%
    13:00 +3°C° 0 mm 6 m/s 749 mmHg 75%
    14:00 +3°C° 0 mm 6 m/s 750 mmHg 75%
    15:00 +3°C° 0 mm 5 m/s 750 mmHg 76%
    16:00 +3°C° 0 mm 5 m/s 750 mmHg 76%
    17:00 +3°C° 0 mm 5 m/s 751 mmHg 79%
    18:00 +3°C° 0 mm 4 m/s 751 mmHg 81%
    19:00 +3°C° 0 mm 4 m/s 752 mmHg 84%
    20:00 +3°C° 0 mm 3 m/s 752 mmHg 87%
    21:00 +2°C° 0 mm 3 m/s 752 mmHg 90%
    22:00 +2°C° 0 mm 3 m/s 752 mmHg 93%
    23:00 +3°C° 0.1 mm 2 m/s 752 mmHg 94%

    Depois de amanhã, 21 Fevereiro, Quinta-feira

    Tempo Temperatura Precipitação Vento Pressão Humidade
    00:00 +3°C° 0.1 mm 2 m/s 752 mmHg 95%
    01:00 +3°C° 0.1 mm 2 m/s 752 mmHg 96%
    02:00 +3°C° 0.3 mm 2 m/s 752 mmHg 96%
    03:00 +4°C° 0.3 mm 2 m/s 751 mmHg 96%
    04:00 +4°C° 0.3 mm 2 m/s 751 mmHg 96%
    05:00 +3°C° 0.7 mm 3 m/s 751 mmHg 96%
    06:00 +3°C° 0.7 mm 3 m/s 751 mmHg 95%
    07:00 +4°C° 0.7 mm 3 m/s 751 mmHg 95%
    08:00 +4°C° 0.2 mm 3 m/s 751 mmHg 94%
    09:00 +4°C° 0.2 mm 3 m/s 751 mmHg 93%
    10:00 +4°C° 0.2 mm 3 m/s 751 mmHg 92%
    11:00 +4°C° 0.5 mm 3 m/s 751 mmHg 92%
    12:00 +5°C° 0.5 mm 3 m/s 751 mmHg 91%
    13:00 +5°C° 0.5 mm 4 m/s 751 mmHg 91%
    14:00 +5°C° 0.1 mm 4 m/s 750 mmHg 91%
    15:00 +5°C° 0.1 mm 4 m/s 750 mmHg 91%
    16:00 +5°C° 0.1 mm 4 m/s 750 mmHg 91%
    17:00 +5°C° 0.3 mm 4 m/s 751 mmHg 91%
    18:00 +5°C° 0.3 mm 4 m/s 751 mmHg 92%
    19:00 +5°C° 0.3 mm 5 m/s 751 mmHg 92%
    20:00 +3°C° 0.5 mm 5 m/s 752 mmHg 91%
    21:00 +3°C° 0.5 mm 4 m/s 753 mmHg 89%
    22:00 +3°C° 0.5 mm 4 m/s 753 mmHg 88%
    23:00 +1°C° 0 mm 4 m/s 754 mmHg 86%

    22 Fevereiro, Sexta-feira

    Tempo Temperatura Precipitação Vento Pressão Humidade
    00:00 0°C° 0 mm 4 m/s 755 mmHg 84%
    01:00 -1°C° 0 mm 4 m/s 756 mmHg 81%
    02:00 -2°C° 0 mm 4 m/s 757 mmHg 79%
    03:00 -2°C° 0 mm 4 m/s 758 mmHg 78%
    04:00 -2°C° 0 mm 4 m/s 759 mmHg 76%
    05:00 -3°C° 0 mm 4 m/s 760 mmHg 74%
    06:00 -2°C° 0 mm 3 m/s 761 mmHg 73%
    07:00 -2°C° 0 mm 3 m/s 762 mmHg 72%
    08:00 -2°C° 0 mm 3 m/s 763 mmHg 68%
    09:00 -1°C° 0 mm 3 m/s 764 mmHg 64%
    10:00 -1°C° 0 mm 3 m/s 764 mmHg 60%
    11:00 -1°C° 0 mm 3 m/s 765 mmHg 57%
    12:00 0°C° 0 mm 3 m/s 765 mmHg 54%
    13:00 0°C° 0 mm 3 m/s 766 mmHg 51%
    14:00 +1°C° 0 mm 2 m/s 766 mmHg 52%
    15:00 +1°C° 0 mm 2 m/s 766 mmHg 52%
    16:00 +1°C° 0 mm 2 m/s 767 mmHg 52%
    17:00 -1°C° 0 mm 2 m/s 767 mmHg 56%
    18:00 -2°C° 0 mm 2 m/s 767 mmHg 61%
    19:00 -1°C° 0 mm 1 m/s 767 mmHg 65%
    20:00 -1°C° 0 mm 1 m/s 767 mmHg 64%
    21:00 -1°C° 0 mm 1 m/s 767 mmHg 64%
    22:00 -1°C° 0 mm 1 m/s 768 mmHg 63%
    23:00 -2°C° 0 mm 0 m/s 768 mmHg 62%

    23 Fevereiro, Sábado

    Tempo Temperatura Precipitação Vento Pressão Humidade
    00:00 -2°C° 0 mm 0 m/s 768 mmHg 62%
    01:00 -2°C° 0 mm 0 m/s 767 mmHg 61%
    02:00 -2°C° 0 mm 0 m/s 767 mmHg 61%
    03:00 -2°C° 0 mm 0 m/s 767 mmHg 60%
    04:00 -2°C° 0 mm 0 m/s 767 mmHg 60%
    05:00 -2°C° 0 mm 0 m/s 767 mmHg 59%
    06:00 -2°C° 0 mm 0 m/s 767 mmHg 59%
    07:00 -2°C° 0 mm 0 m/s 767 mmHg 59%
    08:00 0°C° 0 mm 1 m/s 767 mmHg 55%
    09:00 +1°C° 0 mm 1 m/s 767 mmHg 50%
    10:00 +2°C° 0 mm 1 m/s 767 mmHg 46%
    11:00 +2°C° 0 mm 1 m/s 767 mmHg 46%
    12:00 +2°C° 0 mm 2 m/s 766 mmHg 46%
    13:00 +3°C° 0 mm 2 m/s 766 mmHg 46%
    14:00 +3°C° 0 mm 2 m/s 765 mmHg 50%
    15:00 +2°C° 0 mm 2 m/s 765 mmHg 54%
    16:00 +2°C° 0 mm 2 m/s 765 mmHg 58%
    17:00 +2°C° 0 mm 2 m/s 764 mmHg 62%
    18:00 +1°C° 0 mm 2 m/s 764 mmHg 66%
    19:00 +1°C° 0 mm 2 m/s 764 mmHg 70%
    20:00 +2°C° 0 mm 1 m/s 764 mmHg 75%
    21:00 +1°C° 0 mm 1 m/s 764 mmHg 81%
    22:00 +1°C° 0 mm 1 m/s 764 mmHg 87%
    23:00 +1°C° 0 mm 1 m/s 764 mmHg 88%

    24 Fevereiro, Domingo

    Tempo Temperatura Precipitação Vento Pressão Humidade
    00:00 +1°C° 0 mm 1 m/s 764 mmHg 90%
    01:00 +2°C° 0 mm 1 m/s 764 mmHg 92%
    02:00 +1°C° 0 mm 0 m/s 764 mmHg 93%
    03:00 +1°C° 0 mm 0 m/s 764 mmHg 94%
    04:00 +1°C° 0 mm 0 m/s 764 mmHg 94%
    05:00 +1°C° 0 mm 0 m/s 764 mmHg 95%
    06:00 +2°C° 0 mm 1 m/s 765 mmHg 95%
    07:00 +2°C° 0 mm 1 m/s 765 mmHg 95%
    08:00 +3°C° 0 mm 1 m/s 765 mmHg 93%
    09:00 +4°C° 0 mm 1 m/s 765 mmHg 91%
    10:00 +4°C° 0 mm 1 m/s 766 mmHg 89%
    11:00 +5°C° 0 mm 1 m/s 766 mmHg 86%
    12:00 +5°C° 0 mm 2 m/s 766 mmHg 83%
    13:00 +5°C° 0 mm 2 m/s 766 mmHg 81%
    14:00 +5°C° 0 mm 2 m/s 766 mmHg 81%
    15:00 +5°C° 0 mm 2 m/s 765 mmHg 82%
    16:00 +5°C° 0 mm 2 m/s 765 mmHg 83%
    17:00 +5°C° 0 mm 2 m/s 765 mmHg 86%
    18:00 +4°C° 0 mm 2 m/s 765 mmHg 89%
    19:00 +3°C° 0 mm 2 m/s 765 mmHg 92%
    20:00 +3°C° 0 mm 2 m/s 765 mmHg 93%
    21:00 +3°C° 0 mm 2 m/s 765 mmHg 94%
    22:00 +3°C° 0 mm 2 m/s 764 mmHg 95%
    23:00 +3°C° 0 mm 2 m/s 764 mmHg 95%
    Mostrar mais